DW2659 Weather Reports


time (UTC)temp
F
wind
direction
speed
knots
gust
knots
rain 1hr
in
rain 24hr
in
rain mn
in
humidity
%
barometer
mb
20260505184404 77 266 4.3 10.4 0.00 0.00 0.00 38 1013.4
20260505183904 77 190 5.2 10.4 0.00 0.00 0.00 39 1013.4
20260505183403 77 241 3.5 7.8 0.00 0.00 0.00 40 1013.5
20260505182904 77 229 5.2 10.4 0.00 0.00 0.00 40 1013.5
20260505182403 77 152 5.2 8.7 0.00 0.00 0.00 40 1013.5
20260505181903 76 218 5.2 11.3 0.00 0.00 0.00 39 1013.5
20260505180903 76 229 6.1 11.3 0.00 0.00 0.00 38 1013.5
20260505175904 77 167 6.1 12.2 0.00 0.00 0.00 36 1013.5
20260505175403 77 130 4.3 10.4 0.00 0.00 0.00 37 1013.8
20260505174903 77 160 5.2 10.4 0.00 0.00 0.00 37 1013.8
20260505174404 77 164 7.0 11.3 0.00 0.00 0.00 36 1014.1
20260505173903 77 155 6.1 12.2 0.00 0.00 0.00 38 1014.1
20260505173403 76 134 5.2 10.4 0.00 0.00 0.00 38 1014.1
20260505172904 76 208 4.3 8.7 0.00 0.00 0.00 39 1014.6
20260505172403 76 183 7.8 13.9 0.00 0.00 0.00 38 1014.6
20260505171904 76 220 5.2 10.4 0.00 0.00 0.00 41 1014.6
20260505170904 75 213 4.3 10.4 0.00 0.00 0.00 44 1014.6
20260505165404 74 258 4.3 10.4 0.00 0.00 0.00 43 1014.6
20260505164904 74 263 4.3 6.1 0.00 0.00 0.00 44 1014.6
20260505164404 74 226 1.7 5.2 0.00 0.00 0.00 46 1014.7
20260505163905 74 161 3.5 7.8 0.00 0.00 0.00 46 1014.7
20260505163404 74 258 3.5 6.1 0.00 0.00 0.00 45 1014.7
20260505162903 75 186 2.6 7.8 0.00 0.00 0.00 45 1014.4
20260505162404 75 137 2.6 6.1 0.00 0.00 0.00 45 1014.4
20260505161403 75 185 2.6 10.4 0.00 0.00 0.00 49 1014.6
20260505160404 74 98 2.6 7.8 0.00 0.00 0.00 52 1014.6
20260505152904 72 219 2.6 5.2 0.00 0.00 0.00 49 1015.1
20260505151904 71 239 1.7 4.3 0.00 0.00 0.00 52 1015.1
20260505151403 70 228 2.6 5.2 0.00 0.00 0.00 53 1015.1
20260505150904 69 259 1.7 8.7 0.00 0.00 0.00 53 1015.1
20260505150405 69 256 3.5 7.8 0.00 0.00 0.00 51 1015.1
20260505124904 57 175 1.7 2.6 0.00 0.00 0.00 70 1014.7
20260505123904 56 174 0.9 2.6 0.00 0.00 0.00 74 1014.5
20260505123403 55 142 0.0 0.0 0.00 0.00 0.00 76 1014.5
20260505122905 55 142 0.0 0.0 0.00 0.00 0.00 76 1014.5
20260505122403 54 142 0.0 0.9 0.00 0.00 0.00 76 1014.5
20260505121904 54 142 0.0 0.9 0.00 0.00 0.00 78 1014.5
20260505121405 53 142 0.0 0.0 0.00 0.00 0.00 80 1014.4
20260505120903 53 142 0.0 0.9 0.00 0.00 0.00 80 1014.4
20260505115905 52 142 0.0 0.9 0.00 0.00 0.00 82 1014.2
20260505115403 51 142 0.9 1.7 0.00 0.00 0.00 83 1014.2
20260505114405 50 142 0.0 0.9 0.00 0.00 0.00 84 1014.0
20260505113904 50 128 0.0 0.0 0.00 0.00 0.00 83 1014.0
20260505113404 50 128 0.0 0.9 0.00 0.00 0.00 84 1014.0
20260505112905 50 128 0.0 0.9 0.00 0.00 0.00 84 1014.0
20260505111904 49 128 0.0 0.0 0.00 0.00 0.00 83 1013.5
20260505111405 49 128 0.0 0.0 0.00 0.00 0.00 83 1013.5
20260505110904 49 128 0.0 0.0 0.00 0.00 0.00 83 1013.5
20260505110404 49 128 0.0 0.9 0.00 0.00 0.00 83 1013.5
20260505101904 49 204 0.0 1.7 0.00 0.00 0.00 83 1013.2
20260505101405 49 187 0.0 0.0 0.00 0.00 0.00 83 1013.2
20260505095905 49 187 0.0 0.0 0.00 0.00 0.00 83 1013.3
20260505095404 49 187 0.0 1.7 0.00 0.00 0.00 83 1013.3
20260505094904 49 125 0.0 0.9 0.00 0.00 0.00 84 1013.4
20260505094404 49 125 0.0 0.9 0.00 0.00 0.00 84 1013.4
20260505093904 49 125 0.9 1.7 0.00 0.00 0.00 84 1013.4
20260505091904 49 196 0.0 0.0 0.00 0.00 0.00 83 1013.4
20260505091405 49 196 0.0 0.0 0.00 0.00 0.00 83 1013.4
20260505090904 49 196 0.0 0.0 0.00 0.00 0.00 83 1013.4
20260505090404 49 196 0.0 0.0 0.00 0.00 0.00 83 1013.4
20260505085905 49 196 0.0 0.0 0.00 0.00 0.00 83 1013.1
20260505085403 49 196 0.0 0.0 0.00 0.00 0.00 83 1013.1
20260505084904 50 196 0.0 0.0 0.00 0.00 0.00 82 1013.1
20260505084405 50 196 0.0 0.0 0.00 0.00 0.00 82 1013.5
20260505083904 50 196 0.0 0.0 0.00 0.00 0.00 82 1013.5
20260505083404 50 196 0.0 0.0 0.00 0.00 0.00 82 1013.5
20260505082905 50 196 0.0 0.0 0.00 0.00 0.00 82 1013.5
20260505082404 50 196 0.0 0.0 0.00 0.00 0.00 82 1013.5
20260505081405 50 196 0.0 0.0 0.00 0.00 0.00 82 1013.4
20260505080904 51 196 0.0 0.0 0.00 0.00 0.00 81 1013.4
20260505080404 51 196 0.0 0.0 0.00 0.00 0.00 81 1013.4
20260505075905 51 196 0.0 0.0 0.00 0.00 0.00 81 1013.4
20260505075404 51 196 0.0 0.0 0.00 0.00 0.00 81 1013.4
20260505074904 51 196 0.0 0.0 0.00 0.00 0.00 81 1013.4
20260505074405 51 196 0.0 0.0 0.00 0.00 0.00 81 1013.4
20260505073903 51 196 0.0 0.0 0.00 0.00 0.00 81 1013.4
20260505073404 51 196 0.0 0.0 0.00 0.00 0.00 80 1013.4
20260505072905 52 196 0.0 0.9 0.00 0.00 0.00 80 1013.5
20260505072404 52 196 0.0 0.9 0.00 0.00 0.00 80 1013.5
20260505071903 52 196 0.0 0.0 0.00 0.00 0.00 80 1013.5
20260505070904 52 196 0.0 0.0 0.00 0.00 0.00 79 1013.4
20260505070404 52 196 0.0 0.0 0.00 0.00 0.00 79 1013.4
20260505065905 53 196 0.0 0.0 0.00 0.00 0.00 78 1013.4
20260505065404 53 196 0.0 0.0 0.00 0.00 0.00 78 1013.4
20260505064404 53 196 0.0 0.0 0.00 0.00 0.00 76 1013.4
20260505063904 53 196 0.0 0.0 0.00 0.00 0.00 76 1013.5
20260505063405 54 196 0.0 0.0 0.00 0.00 0.00 76 1013.5
20260505062904 54 196 0.0 0.0 0.00 0.00 0.00 76 1013.6
20260505062404 54 196 0.0 0.0 0.00 0.00 0.00 76 1013.5
20260505061905 54 196 0.0 0.0 0.00 0.00 0.00 75 1013.5
20260505061405 55 196 0.0 0.0 0.00 0.00 0.00 75 1013.5
20260505060904 55 196 0.0 0.0 0.00 0.00 0.00 74 1013.5
20260505060405 55 196 0.0 0.0 0.00 0.00 0.00 74 1013.5
20260505055904 55 196 0.0 0.0 0.00 0.00 0.00 74 1013.5
20260505054905 56 196 0.0 0.0 0.00 0.00 0.00 75 1013.5
20260505054403 56 196 0.0 0.0 0.00 0.00 0.00 74 1013.5
20260505053904 56 196 0.0 0.0 0.00 0.00 0.00 73 1013.5
20260505053405 56 196 0.0 0.0 0.00 0.00 0.00 73 1013.5
20260505052904 57 196 0.0 0.0 0.00 0.00 0.00 72 1013.4
20260505052404 57 196 0.0 0.9 0.00 0.00 0.00 71 1013.4
20260505051905 57 196 0.9 0.9 0.00 0.00 0.00 70 1013.4
20260505050904 58 212 0.0 2.6 0.00 0.00 0.00 69 1013.4
20260505050409 58 249 0.9 5.2 0.00 0.00 0.00 65 1013.4
20260505041403 54 281 0.0 0.0 0.00 0.00 0.00 79 1013.4
20260505040902 54 270 0.0 0.0 0.00 0.00 0.00 79 1013.4
20260505040404 55 270 0.0 0.0 0.00 0.00 0.00 78 1013.4
20260505035903 55 270 0.0 0.0 0.00 0.00 0.00 78 1013.4
20260505035403 55 270 0.0 0.9 0.00 0.00 0.00 78 1013.4
20260505034903 55 270 0.0 0.9 0.00 0.00 0.00 78 1013.4
20260505033903 55 270 0.0 0.9 0.00 0.00 0.00 78 1013.4
20260505032403 56 269 0.0 0.9 0.00 0.00 0.00 76 1013.3
20260505031403 56 270 0.0 0.0 0.00 0.00 0.00 75 1013.4
20260505030903 56 270 0.0 0.0 0.00 0.00 0.00 74 1013.4
20260505030404 56 270 0.0 0.0 0.00 0.00 0.00 74 1013.4
20260505025902 57 269 0.0 0.9 0.00 0.00 0.00 74 1013.5
20260505025403 57 269 0.0 0.0 0.00 0.00 0.00 73 1013.5
20260505024904 57 269 0.0 0.0 0.00 0.00 0.00 72 1013.5
20260505023902 58 269 0.0 0.0 0.00 0.00 0.00 71 1013.5
20260505023404 58 270 0.0 0.0 0.00 0.00 0.00 70 1013.5
20260505022903 58 270 0.0 0.0 0.00 0.00 0.00 70 1013.4
20260505022403 58 269 0.0 0.0 0.00 0.00 0.00 70 1013.4
20260505021903 58 269 0.0 0.0 0.00 0.00 0.00 69 1013.4
20260505021403 59 269 0.0 0.0 0.00 0.00 0.00 69 1013.4
20260505015903 60 269 0.0 0.0 0.00 0.00 0.00 66 1013.4
20260505015403 60 269 0.0 0.0 0.00 0.00 0.00 65 1013.4
20260505014904 61 269 0.0 0.0 0.00 0.00 0.00 65 1013.0
20260505014402 61 270 0.0 0.0 0.00 0.00 0.00 64 1013.0
20260505013902 61 269 0.0 0.0 0.00 0.00 0.00 63 1013.0
20260505013404 61 269 0.0 0.0 0.00 0.00 0.00 63 1013.0
20260505012902 62 270 0.0 0.0 0.00 0.00 0.00 62 1012.7
20260505012403 62 269 0.0 0.0 0.00 0.00 0.00 62 1012.7
20260505011904 63 270 0.0 0.0 0.00 0.00 0.00 61 1012.7
20260505011403 63 270 0.0 0.0 0.00 0.00 0.00 60 1012.7
20260505005902 64 269 0.0 0.0 0.00 0.00 0.00 57 1012.6
20260505005402 65 270 0.0 0.0 0.00 0.00 0.00 56 1012.6
20260505004904 65 269 0.0 0.0 0.00 0.00 0.00 55 1012.6
20260505004403 66 269 0.0 0.0 0.00 0.00 0.00 54 1012.6
20260505002903 67 269 0.0 0.0 0.00 0.00 0.00 52 1012.7
20260505002403 68 270 0.0 0.0 0.00 0.00 0.00 52 1012.7
20260505001904 68 270 0.0 0.0 0.00 0.00 0.00 51 1012.5
20260505001403 68 269 0.0 0.0 0.00 0.00 0.00 50 1012.6
20260505000903 69 269 0.0 0.0 0.00 0.00 0.00 49 1012.6
20260505000405 69 270 0.0 0.0 0.00 0.00 0.00 50 1012.6
20260504235902 70 269 0.0 0.0 0.00 0.00 0.00 48 1012.6
20260504235403 70 270 0.0 0.9 0.00 0.00 0.00 49 1012.6
20260504234904 70 270 0.0 0.9 0.00 0.00 0.00 47 1012.6
20260504234403 71 270 0.0 0.9 0.00 0.00 0.00 46 1012.7
20260504233404 71 270 0.9 1.7 0.00 0.00 0.00 42 1012.7
20260504232902 72 256 0.9 2.6 0.00 0.00 0.00 42 1012.7
20260504232403 72 263 0.9 0.9 0.00 0.00 0.00 41 1012.7
20260504231904 73 270 0.0 1.7 0.00 0.00 0.00 42 1012.7
20260504230903 74 259 0.9 2.6 0.00 0.00 0.00 37 1012.8
20260504230404 74 243 1.7 2.6 0.00 0.00 0.00 35 1012.8
20260504225903 75 199 1.7 4.3 0.00 0.00 0.00 34 1012.7
20260504225403 75 156 1.7 6.1 0.00 0.00 0.00 33 1012.8
20260504224904 75 185 2.6 5.2 0.00 0.00 0.00 33 1012.8
20260504224403 75 251 3.5 7.0 0.00 0.00 0.00 33 1012.9
20260504223903 75 253 4.3 7.0 0.00 0.00 0.00 33 1012.9
20260504223404 76 225 4.3 10.4 0.00 0.00 0.00 36 1012.9
20260504222903 76 215 2.6 7.8 0.00 0.00 0.00 37 1012.6
20260504222403 76 261 2.6 8.7 0.00 0.00 0.00 37 1012.6
20260504221904 76 188 2.6 7.8 0.00 0.00 0.00 37 1012.6
20260504221403 76 207 1.7 6.1 0.00 0.00 0.00 38 1012.6
20260504220903 76 251 1.7 6.1 0.00 0.00 0.00 38 1012.6
20260504220404 76 187 3.5 7.0 0.00 0.00 0.00 36 1012.6
20260504215903 77 225 4.3 7.8 0.00 0.00 0.00 37 1012.6
20260504215403 77 186 4.3 8.7 0.00 0.00 0.00 35 1012.6
20260504214904 78 234 4.3 7.0 0.00 0.00 0.00 36 1012.5
20260504214403 78 153 2.6 7.0 0.00 0.00 0.00 36 1012.5
20260504213903 78 100 0.9 5.2 0.00 0.00 0.00 35 1012.5
20260504213404 78 241 1.7 6.1 0.00 0.00 0.00 34 1012.7
20260504212903 78 241 2.6 7.8 0.00 0.00 0.00 34 1012.7
20260504212403 78 227 2.6 7.8 0.00 0.00 0.00 33 1012.7
20260504205903 77 250 3.5 7.0 0.00 0.00 0.00 34 1012.8
20260504205403 77 164 1.7 4.3 0.00 0.00 0.00 36 1012.8
20260504204904 77 210 2.6 6.1 0.00 0.00 0.00 35 1012.8
20260504204406 78 249 2.6 6.1 0.00 0.00 0.00 37 1012.8
20260504203903 77 238 1.7 6.1 0.00 0.00 0.00 38 1012.8
20260504203403 77 260 3.5 6.1 0.00 0.00 0.00 37 1013.2
20260504202904 77 256 2.6 5.2 0.00 0.00 0.00 36 1013.2
20260504202403 77 267 0.9 2.6 0.00 0.00 0.00 37 1013.2
20260504201404 77 244 4.3 10.4 0.00 0.00 0.00 37 1013.5
20260504200903 78 196 4.3 7.8 0.00 0.00 0.00 33 1013.5
20260504200403 78 227 3.5 6.1 0.00 0.00 0.00 38 1013.5
20260504195403 77 214 0.9 2.6 0.00 0.00 0.00 41 1013.5
20260504194903 77 231 2.6 5.2 0.00 0.00 0.00 39 1013.5
20260504193903 77 209 2.6 6.1 0.00 0.00 0.00 38 1013.6
20260504193403 77 238 2.6 6.1 0.00 0.00 0.00 37 1014.0
20260504192904 77 247 2.6 7.0 0.00 0.00 0.00 39 1014.0
20260504192403 77 269 1.7 6.1 0.00 0.00 0.00 41 1014.0
20260504191904 77 244 4.3 8.7 0.00 0.00 0.00 38 1014.0
20260504191405 78 285 2.6 6.1 0.00 0.00 0.00 37 1014.4
20260504190903 77 267 2.6 7.0 0.00 0.00 0.00 40 1014.4
20260504190403 77 245 2.6 7.0 0.00 0.00 0.00 39 1014.4
20260504185904 77 181 4.3 7.0 0.00 0.00 0.00 38 1014.4
20260504185403 77 219 2.6 6.1 0.00 0.00 0.00 40 1014.4
20260504184903 77 250 3.5 6.1 0.00 0.00 0.00 39 1014.4